Regional Weather Roundup
Issued by NWS Kansas City/Pleasant Hill, MO

Home | Current Version | Previous Version | Graphics & Text | Print | Product List | Glossary Off
Versions: 1 2 3 4 5 6 7 8 9 10 11 12 13 14 15 16 17 18 19 20 21 22 23 24 25 26 27 28 29 30 31 32 33 34 35 36 37 38 39 40 41 42 43 44 45 46 47 48 49 50

000
ASUS43 KEAX 221211
RWREAX

WEATHER ROUNDUP FOR EASTERN KANSAS AND NORTHWEST MISSOURI
NATIONAL WEATHER SERVICE KANSAS CITY/PLEASANT HILL MO
700 AM CDT WED OCT 22 2014

KSZ040-057-103>105-MOZ028-029-037-043-221300-
...KANSAS CITY METROPOLITAN AREA...

CITY           SKY/WX    TMP DP  RH WIND       PRES   REMARKS
K.C. INTL      MOCLDY    54  46  74 SE12      30.17R
6HR MIN TEMP:  53; 6HR MAX TEMP:  56;

K.C. DOWNTOWN  PTCLDY    56  45  66 E6        30.18R
6HR MIN TEMP:  56; 6HR MAX TEMP:  59;

LEES SUMMIT    MOCLDY    52  45  77 SE6       30.20R
6HR MIN TEMP:  52; 6HR MAX TEMP:  56;

OLATHE - IXD   CLOUDY    54  46  74 SE9       30.17R
6HR MIN TEMP:  54; 6HR MAX TEMP:  56;

OLATHE - OJC   MOCLDY    53  47  79 SE8       30.17R
6HR MIN TEMP:  53; 6HR MAX TEMP:  56;

LAWRENCE       PTCLDY    51  46  83 E8        30.16R

$$

MOZ001>008-011>017-020>025-030>033-038>040-044>046-053-054-221300-
...NORTHERN AND CENTRAL MISSOURI...

CITY           SKY/WX    TMP DP  RH WIND       PRES   REMARKS
ST. JOSEPH     CLOUDY    55  46  71 SE12      30.17R
6HR MIN TEMP:  54; 6HR MAX TEMP:  57;

MOSBY          PTSUNNY   52  45  76 E5        30.20R
WHITEMAN AFB   CLEAR     45  42  90 SE6       30.21R
6HR MIN TEMP:  45; 6HR MAX TEMP:  50;

CLINTON        CLEAR     48  46  93 CALM      30.21R
SEDALIA        CLEAR     46  42  86 SE5       30.23R
6HR MIN TEMP:  46; 6HR MAX TEMP:  52;

WARSAW         NOT AVBL
MARSHALL       CLEAR     48  45  87 E8        30.24R
CHILLICOTHE      N/A     46  40  79 SE6       30.25R
6HR MIN TEMP:  46; 6HR MAX TEMP:  52;

MOBERLY        CLEAR     41  37  87 E6        30.27R
KIRKSVILLE     CLEAR     40  39  97 E8        30.27R WCI  34
6HR MIN TEMP:  40; 6HR MAX TEMP:  46;


$$

MOZ041-047>049-056>058-063>065-088>090-097-221300-
...EASTERN AND SOUTHERN MISSOURI...

CITY           SKY/WX    TMP DP  RH WIND       PRES   REMARKS
ST. LOUIS INTL CLEAR     43  38  82 CALM      30.30R
6HR MIN TEMP:  43; 6HR MAX TEMP:  50;

SPIRIT OF STL  CLEAR     37  36  96 CALM      30.29R
COLUMBIA       CLEAR     44  40  85 E7        30.26R
JEFFERSON CITY CLEAR     45  41  86 E5        30.26R
MEXICO         CLEAR    N/A N/A N/A E3        30.27R HAZE
HANNIBAL       CLEAR     41  39  93 CALM      30.29R
ROLLA          CLEAR     42  39  89 E8        30.23R
LEBANON        CLEAR     45  41  87 SE5       30.23R
OSAGE BEACH    CLEAR     45  39  81 E5        30.23R
SPRINGFIELD    CLEAR     51  44  77 SE14      30.19R
BRANSON        CLEAR     48  46  93 E13       30.20R
NEVADA         MOCLDY    52  46  82 E6        30.19R
JOPLIN         PTCLDY    53  47  79 SE3       30.17R
WEST PLAINS    CLEAR     45  40  82 E5        30.24S

$$

IAZ060-094-KSZ022-034>040-054-083-096-NEZ052-066-093-221300-
...KANSAS...SOUTHEAST NEBRASKA AND IOWA...

CITY           SKY/WX    TMP DP  RH WIND       PRES   REMARKS
TOPEKA         PTCLDY    54  47  77 E6        30.15R
6HR MIN TEMP:  53; 6HR MAX TEMP:  58;

MANHATTAN      CLEAR     58  50  75 SE8       30.10R
EMPORIA        PTCLDY    51  48  89 SE5       30.13R
CHANUTE        CLOUDY    57  50  77 SE6       30.15R
WICHITA        CLEAR     58  56  93 SE7       30.10R
OMAHA          PTCLDY    55  44  66 SE16      30.11S
LINCOLN        CLEAR     54  44  69 S12       30.08S
FALLS CITY     PTCLDY    51  45  79 SE6       30.13R
LAMONI         MOCLDY    46  40  79 SE9       30.22R
DES MOINES     PTCLDY    44  38  79 SE10      30.23R

$$




USA.gov is the U.S. government's official web portal to all federal, state and local government web resources and services.